IRIDIUM 33 DEB, 46974

Orbit data source: Space-Track

IRIDIUM 33 DEB, 46974 is space debris in LEO originally from a launch on Sun, 14 Sep 1997 UTC launched from the Tyuratam Missile And Space Complex (TTMTR). The debris from Iridium 33, an American commercial communications satellite, has been tracked extensively since its accidental collision with the defunct Russian satellite Cosmos 2251 in 2009. This event, occurring at high speed in low Earth orbit (LEO), generated thousands of pieces of space debris, significantly increasing the risk of further collisions. The Iridium 33 debris cloud has impacted space traffic management and orbital debris mitigation strategies, making it a subject of ongoing study in space situational awareness.

Loading next visibility...
Identifier
46974, 1997-051ACG
Orbit
LEO
Country
Flag of USUS
Related business
Manufacturer
Unknown
Mission
Spacecraft
Bus & Motor
Unknown
Mass
Unknown
Launch date (UTC)
1997-09-14 (28 years ago)
Launch vehicle
Unknown
Launch site
Tyuratam Missile And Space Complex (TTMTR)
Object type
Payload
Rocket body
Debris
Shape & HBR
Unknown shape, 0.1 m
Radar Cross Section
Small (<0.1 m²)

Expand to show TLE details & history
Last TLE update: 3 days ago

TLE from 3 days ago
0 IRIDIUM 33 DEB
1 46974U 97051ACG 25302.76953384  .00010716  00000-0  30368-2 0  9996
2 46974  86.3006 124.4339 0095781 332.1114  27.4969 14.42751656568744
Epoch: 2025-10-29T18:28Z
TLE epoch observation values (Epoch: 2025-10-29T18:28:07.723Z)
Latitude
-0.00009°
Longitude
169.0638°
Altitude
692.055 km
Speed
7.542 km/s
True Right ascension
08h 17m 44s
True Declination
0° 00' 00"
Sunlit
Object was in daylight at epoch
Visualization orbit readout
Latitude
Unknown
Longitude
Unknown
Altitude
Unknown
Speed
Unknown
Apparent Right ascension
Unknown
Apparent Declination
Unknown
Sunlit
N/A
Visualization observer readout
Local Sidereal Time
19:28:45
Azimuth
Unknown
Elevation
Unknown
Doppler factor
Unknown
Orbital elements
Apogee altitude
814.615 km
Perigee altitude
678.136 km
Semi-major axis
7,124.512 km
Eccentricity
0.00958
Inclination
86.3006°
RAAN
124.4339°
Arg. of periapsis
332.1114°
True anomaly
28.00908°
Mean anomaly
27.4969°
Eccentric anomaly
27.75244°
Mean motion
3.6092 °/min
Orbital period
99.75 mins
BSTAR
0.0030368
Loading maneuver chart data...
Computing Atmospheric mass density...

Documentation

Showing up to 5 results
|